Year,Month,Day,Hour,Minute,Value (Times are PST for temperature in C)
2015,06,24,00,00,16.80
2015,06,24,00,01,16.70
2015,06,24,00,02,16.70
2015,06,24,00,03,16.70
2015,06,24,00,04,16.70
2015,06,24,00,05,16.70
2015,06,24,00,06,16.70
2015,06,24,00,07,16.70
2015,06,24,00,08,16.60
2015,06,24,00,09,16.60
2015,06,24,00,10,16.60
2015,06,24,00,11,16.60
2015,06,24,00,12,16.60
2015,06,24,00,13,16.60
2015,06,24,00,14,16.60
2015,06,24,00,15,16.60
2015,06,24,00,16,16.50
2015,06,24,00,17,16.50
2015,06,24,00,18,16.50
2015,06,24,00,19,16.50
2015,06,24,00,20,16.50
2015,06,24,00,21,16.40
2015,06,24,00,22,16.40
2015,06,24,00,23,16.40
2015,06,24,00,24,16.40
2015,06,24,00,25,16.40
2015,06,24,00,26,16.40
2015,06,24,00,27,16.40
2015,06,24,00,28,16.40
2015,06,24,00,29,16.30
2015,06,24,00,30,16.30
2015,06,24,00,31,16.30
2015,06,24,00,32,16.30
2015,06,24,00,33,16.30
2015,06,24,00,34,16.30
2015,06,24,00,35,16.30
2015,06,24,00,36,16.30
2015,06,24,00,37,16.30
2015,06,24,00,38,16.20
2015,06,24,00,39,16.20
2015,06,24,00,40,16.20
2015,06,24,00,41,16.20
2015,06,24,00,42,16.20
2015,06,24,00,43,16.20
2015,06,24,00,44,16.20
2015,06,24,00,45,16.20
2015,06,24,00,46,16.20
2015,06,24,00,47,16.20
2015,06,24,00,48,16.20
2015,06,24,00,49,16.20
2015,06,24,00,50,16.20
2015,06,24,00,51,16.20
2015,06,24,00,52,16.20
2015,06,24,00,53,16.20
2015,06,24,00,54,16.20
2015,06,24,00,55,16.20
2015,06,24,00,56,16.20
2015,06,24,00,57,16.10
2015,06,24,00,58,16.10
2015,06,24,00,59,16.10
2015,06,24,01,00,16.20
2015,06,24,01,01,16.20
2015,06,24,01,02,16.20
2015,06,24,01,03,16.20
2015,06,24,01,04,16.20
2015,06,24,01,05,16.20
2015,06,24,01,06,16.20
2015,06,24,01,07,16.20
2015,06,24,01,08,16.10
2015,06,24,01,09,16.10
2015,06,24,01,10,16.10
2015,06,24,01,11,16.10
2015,06,24,01,12,16.10
2015,06,24,01,13,16.10
2015,06,24,01,14,16.10
2015,06,24,01,15,16.10
2015,06,24,01,16,16.00
2015,06,24,01,17,16.00
2015,06,24,01,18,16.00
2015,06,24,01,19,16.00
2015,06,24,01,20,15.90
2015,06,24,01,21,15.90
2015,06,24,01,22,15.90
2015,06,24,01,23,15.90
2015,06,24,01,24,15.90
2015,06,24,01,25,15.90
2015,06,24,01,26,15.90
2015,06,24,01,27,15.80
2015,06,24,01,28,15.80
2015,06,24,01,29,15.80
2015,06,24,01,30,15.80
2015,06,24,01,31,15.80
2015,06,24,01,32,15.80
2015,06,24,01,33,15.80
2015,06,24,01,34,15.80
2015,06,24,01,35,15.80
2015,06,24,01,36,15.80
2015,06,24,01,37,15.80
2015,06,24,01,38,15.80
2015,06,24,01,39,15.80
2015,06,24,01,40,15.80
2015,06,24,01,41,15.70
2015,06,24,01,42,15.70
2015,06,24,01,43,15.70
2015,06,24,01,44,15.70
2015,06,24,01,45,15.70
2015,06,24,01,46,15.70
2015,06,24,01,47,15.70
2015,06,24,01,48,15.70
2015,06,24,01,49,15.60
2015,06,24,01,50,15.60
2015,06,24,01,51,15.60
2015,06,24,01,52,15.60
2015,06,24,01,53,15.60
2015,06,24,01,54,15.50
2015,06,24,01,55,15.50
2015,06,24,01,56,15.50
2015,06,24,01,57,15.50
2015,06,24,01,58,15.40
2015,06,24,01,59,15.40
2015,06,24,02,00,15.40
2015,06,24,02,01,15.40
2015,06,24,02,02,15.40
2015,06,24,02,03,15.40
2015,06,24,02,04,15.40
2015,06,24,02,05,15.40
2015,06,24,02,06,15.40
2015,06,24,02,07,15.40
2015,06,24,02,08,15.40
2015,06,24,02,09,15.40
2015,06,24,02,10,15.30
2015,06,24,02,11,15.30
2015,06,24,02,12,15.30
2015,06,24,02,13,15.30
2015,06,24,02,14,15.30
2015,06,24,02,15,15.30
2015,06,24,02,16,15.30
2015,06,24,02,17,15.30
2015,06,24,02,18,15.30
2015,06,24,02,19,15.30
2015,06,24,02,20,15.30
2015,06,24,02,21,15.20
2015,06,24,02,22,15.20
2015,06,24,02,23,15.20
2015,06,24,02,24,15.20
2015,06,24,02,25,15.20
2015,06,24,02,26,15.20
2015,06,24,02,27,15.20
2015,06,24,02,28,15.20
2015,06,24,02,29,15.20
2015,06,24,02,30,15.20
2015,06,24,02,31,15.20
2015,06,24,02,32,15.20
2015,06,24,02,33,15.20
2015,06,24,02,34,15.10
2015,06,24,02,35,15.10
2015,06,24,02,36,15.10
2015,06,24,02,37,15.10
2015,06,24,02,38,15.10
2015,06,24,02,39,15.10
2015,06,24,02,40,15.10
2015,06,24,02,41,15.10
2015,06,24,02,42,15.10
2015,06,24,02,43,15.10
2015,06,24,02,44,15.00
2015,06,24,02,45,15.00
2015,06,24,02,46,15.00
2015,06,24,02,47,15.00
2015,06,24,02,48,15.00
2015,06,24,02,49,15.00
2015,06,24,02,50,15.00
2015,06,24,02,51,15.00
2015,06,24,02,52,15.00
2015,06,24,02,53,15.00
2015,06,24,02,54,15.00
2015,06,24,02,55,15.00
2015,06,24,02,56,15.00
2015,06,24,02,57,15.00
2015,06,24,02,58,15.00
2015,06,24,02,59,15.00
2015,06,24,03,00,15.00
2015,06,24,03,01,15.00
2015,06,24,03,02,15.00
2015,06,24,03,03,15.00
2015,06,24,03,04,15.00
2015,06,24,03,05,15.00
2015,06,24,03,06,15.00
2015,06,24,03,07,14.90
2015,06,24,03,08,14.90
2015,06,24,03,09,14.90
2015,06,24,03,10,14.90
2015,06,24,03,11,14.90
2015,06,24,03,12,14.90
2015,06,24,03,13,14.90
2015,06,24,03,14,14.90
2015,06,24,03,15,14.90
2015,06,24,03,16,14.90
2015,06,24,03,17,14.90
2015,06,24,03,18,14.90
2015,06,24,03,19,14.90
2015,06,24,03,20,14.90
2015,06,24,03,21,14.90
2015,06,24,03,22,14.90
2015,06,24,03,23,14.90
2015,06,24,03,24,14.90
2015,06,24,03,25,14.90
2015,06,24,03,26,14.90
2015,06,24,03,27,14.90
2015,06,24,03,28,14.90
2015,06,24,03,29,14.90
2015,06,24,03,30,14.90
2015,06,24,03,31,14.90
2015,06,24,03,32,14.90
2015,06,24,03,33,14.90
2015,06,24,03,34,14.90
2015,06,24,03,35,14.90
2015,06,24,03,36,14.90
2015,06,24,03,37,14.90
2015,06,24,03,38,14.90
2015,06,24,03,39,14.90
2015,06,24,03,40,14.90
2015,06,24,03,41,14.90
2015,06,24,03,42,14.90
2015,06,24,03,43,14.80
2015,06,24,03,44,14.80
2015,06,24,03,45,14.80
2015,06,24,03,46,14.80
2015,06,24,03,47,14.80
2015,06,24,03,48,14.80
2015,06,24,03,49,14.80
2015,06,24,03,50,14.80
2015,06,24,03,51,14.80
2015,06,24,03,52,14.80
2015,06,24,03,53,14.80
2015,06,24,03,54,14.80
2015,06,24,03,55,14.80
2015,06,24,03,56,14.80
2015,06,24,03,57,14.80
2015,06,24,03,58,14.80
2015,06,24,03,59,14.80
2015,06,24,04,00,14.80
2015,06,24,04,01,14.80
2015,06,24,04,02,14.80
2015,06,24,04,03,14.80
2015,06,24,04,04,14.80
2015,06,24,04,05,14.80
2015,06,24,04,06,14.80
2015,06,24,04,07,14.80
2015,06,24,04,08,14.80
2015,06,24,04,09,14.80
2015,06,24,04,10,14.80
2015,06,24,04,11,14.80
2015,06,24,04,12,14.80
2015,06,24,04,13,14.80
2015,06,24,04,14,14.80
2015,06,24,04,15,14.80
2015,06,24,04,16,14.80
2015,06,24,04,17,14.80
2015,06,24,04,18,14.80
2015,06,24,04,19,14.80
2015,06,24,04,20,14.80
2015,06,24,04,21,14.80
2015,06,24,04,22,14.80
2015,06,24,04,23,14.80
2015,06,24,04,24,14.80
2015,06,24,04,25,14.80
2015,06,24,04,26,14.80
2015,06,24,04,27,14.80
2015,06,24,04,28,14.80
2015,06,24,04,29,14.80
2015,06,24,04,30,14.80
2015,06,24,04,31,14.80
2015,06,24,04,32,14.80
2015,06,24,04,33,14.80
2015,06,24,04,34,14.80
2015,06,24,04,35,14.80
2015,06,24,04,36,14.80
2015,06,24,04,37,14.80
2015,06,24,04,38,14.80
2015,06,24,04,39,14.80
2015,06,24,04,40,14.80
2015,06,24,04,41,14.80
2015,06,24,04,42,14.80
2015,06,24,04,43,14.80
2015,06,24,04,44,14.80
2015,06,24,04,45,14.80
2015,06,24,04,46,14.80
2015,06,24,04,47,14.80
2015,06,24,04,48,14.80
2015,06,24,04,49,14.80
2015,06,24,04,50,14.80
2015,06,24,04,51,14.80
2015,06,24,04,52,14.70
2015,06,24,04,53,14.70
2015,06,24,04,54,14.70
2015,06,24,04,55,14.70
2015,06,24,04,56,14.70
2015,06,24,04,57,14.70
2015,06,24,04,58,14.70
2015,06,24,04,59,14.70
2015,06,24,05,00,14.70
2015,06,24,05,01,14.80
2015,06,24,05,02,14.80
2015,06,24,05,03,14.80
2015,06,24,05,04,14.80
2015,06,24,05,05,14.80
2015,06,24,05,06,14.70
2015,06,24,05,07,14.70
2015,06,24,05,08,14.70
2015,06,24,05,09,14.70
2015,06,24,05,10,14.70
2015,06,24,05,11,14.70
2015,06,24,05,12,14.70
2015,06,24,05,13,14.80
2015,06,24,05,14,14.80
2015,06,24,05,15,14.80
2015,06,24,05,16,14.80
2015,06,24,05,17,14.80
2015,06,24,05,18,14.80
2015,06,24,05,19,14.80
2015,06,24,05,20,14.80
2015,06,24,05,21,14.80
2015,06,24,05,22,14.80
2015,06,24,05,23,14.80
2015,06,24,05,24,14.70
2015,06,24,05,25,14.70
2015,06,24,05,26,14.70
2015,06,24,05,27,14.70
2015,06,24,05,28,14.70
2015,06,24,05,29,14.70
2015,06,24,05,30,14.70
2015,06,24,05,31,14.70
2015,06,24,05,32,14.70
2015,06,24,05,33,14.70
2015,06,24,05,34,14.70
2015,06,24,05,35,14.70
2015,06,24,05,36,14.70
2015,06,24,05,37,14.70
2015,06,24,05,38,14.70
2015,06,24,05,39,14.70
2015,06,24,05,40,14.70
2015,06,24,05,41,14.70
2015,06,24,05,42,14.70
2015,06,24,05,43,14.70
2015,06,24,05,44,14.70
2015,06,24,05,45,14.70
2015,06,24,05,46,14.70
2015,06,24,05,47,14.70
2015,06,24,05,48,14.70
2015,06,24,05,49,14.70
2015,06,24,05,50,14.70
2015,06,24,05,51,14.80
2015,06,24,05,52,14.80
2015,06,24,05,53,14.80
2015,06,24,05,54,14.80
2015,06,24,05,55,14.80
2015,06,24,05,56,14.80
2015,06,24,05,57,14.80
2015,06,24,05,58,14.80
2015,06,24,05,59,14.80
2015,06,24,06,00,14.80
2015,06,24,06,01,14.80
2015,06,24,06,02,14.80
2015,06,24,06,03,14.80
2015,06,24,06,04,14.90
2015,06,24,06,05,14.90
2015,06,24,06,06,14.90
2015,06,24,06,07,14.90
2015,06,24,06,08,14.80
2015,06,24,06,09,14.80
2015,06,24,06,10,14.80
2015,06,24,06,11,14.80
2015,06,24,06,12,14.80
2015,06,24,06,13,14.80
2015,06,24,06,14,14.80
2015,06,24,06,15,14.80
2015,06,24,06,16,14.80
2015,06,24,06,17,14.80
2015,06,24,06,18,14.80
2015,06,24,06,19,14.80
2015,06,24,06,20,14.90
2015,06,24,06,21,14.90
2015,06,24,06,22,14.90
2015,06,24,06,23,14.90
2015,06,24,06,24,14.90
2015,06,24,06,25,14.90
2015,06,24,06,26,14.90
2015,06,24,06,27,14.90
2015,06,24,06,28,14.90
2015,06,24,06,29,14.90
2015,06,24,06,30,14.90
2015,06,24,06,31,14.90
2015,06,24,06,32,14.90
2015,06,24,06,33,15.00
2015,06,24,06,34,15.00
2015,06,24,06,35,15.00
2015,06,24,06,36,15.10
2015,06,24,06,37,15.10
2015,06,24,06,38,15.10
2015,06,24,06,39,15.10
2015,06,24,06,40,15.10
2015,06,24,06,41,15.10
2015,06,24,06,42,15.10
2015,06,24,06,43,15.10
2015,06,24,06,44,15.10
2015,06,24,06,45,15.10
2015,06,24,06,46,15.10
2015,06,24,06,47,15.10
2015,06,24,06,48,15.10
2015,06,24,06,49,15.10
2015,06,24,06,50,15.10
2015,06,24,06,51,15.20
2015,06,24,06,52,15.20
2015,06,24,06,53,15.20
2015,06,24,06,54,15.20
2015,06,24,06,55,15.20
2015,06,24,06,56,15.20
2015,06,24,06,57,15.20
2015,06,24,06,58,15.20
2015,06,24,06,59,15.20
2015,06,24,07,00,15.30
2015,06,24,07,01,15.30
2015,06,24,07,02,15.30
2015,06,24,07,03,15.30
2015,06,24,07,04,15.40
2015,06,24,07,05,15.50
2015,06,24,07,06,15.50
2015,06,24,07,07,15.60
2015,06,24,07,08,15.70
2015,06,24,07,09,15.80
2015,06,24,07,10,15.90
2015,06,24,07,11,16.00
2015,06,24,07,12,16.10
2015,06,24,07,13,16.20
2015,06,24,07,14,16.30
2015,06,24,07,15,16.40
2015,06,24,07,16,16.50
2015,06,24,07,17,16.60
2015,06,24,07,18,16.70
2015,06,24,07,19,16.80
2015,06,24,07,20,16.80
2015,06,24,07,21,16.90
2015,06,24,07,22,17.00
2015,06,24,07,23,17.00
2015,06,24,07,24,17.10
2015,06,24,07,25,17.20
2015,06,24,07,26,17.30
2015,06,24,07,27,17.30
2015,06,24,07,28,17.40
2015,06,24,07,29,17.50
2015,06,24,07,30,17.50
2015,06,24,07,31,17.60
2015,06,24,07,32,17.70
2015,06,24,07,33,17.80
2015,06,24,07,34,17.90
2015,06,24,07,35,17.90
2015,06,24,07,36,18.10
2015,06,24,07,37,18.20
2015,06,24,07,38,18.30
2015,06,24,07,39,18.30
2015,06,24,07,40,18.40
2015,06,24,07,41,18.50
2015,06,24,07,42,18.60
2015,06,24,07,43,18.70
2015,06,24,07,44,18.80
2015,06,24,07,45,18.80
2015,06,24,07,46,18.90
2015,06,24,07,47,19.00
2015,06,24,07,48,19.10
2015,06,24,07,49,19.20
2015,06,24,07,50,19.30
2015,06,24,07,51,19.40
2015,06,24,07,52,19.50
2015,06,24,07,53,19.60
2015,06,24,07,54,19.70
2015,06,24,07,55,19.70
2015,06,24,07,56,19.80
2015,06,24,07,57,19.80
2015,06,24,07,58,19.80
2015,06,24,07,59,19.80
2015,06,24,08,00,19.90
2015,06,24,08,01,19.90
2015,06,24,08,02,19.90
2015,06,24,08,03,20.00
2015,06,24,08,04,20.10
2015,06,24,08,05,20.20
2015,06,24,08,06,20.20
2015,06,24,08,07,20.40
2015,06,24,08,08,20.50
2015,06,24,08,09,20.60
2015,06,24,08,10,20.60
2015,06,24,08,11,20.70
2015,06,24,08,12,20.80
2015,06,24,08,13,20.80
2015,06,24,08,14,20.90
2015,06,24,08,15,20.90
2015,06,24,08,16,21.00
2015,06,24,08,17,21.00
2015,06,24,08,18,21.10
2015,06,24,08,19,21.10
2015,06,24,08,20,21.10
2015,06,24,08,21,21.10
2015,06,24,08,22,21.10
2015,06,24,08,23,21.20
2015,06,24,08,24,21.20
2015,06,24,08,25,21.20
2015,06,24,08,26,21.20
2015,06,24,08,27,21.20
2015,06,24,08,28,21.20
2015,06,24,08,29,21.20
2015,06,24,08,30,21.30
2015,06,24,08,31,21.30
2015,06,24,08,32,21.30
2015,06,24,08,33,21.30
2015,06,24,08,34,21.30
2015,06,24,08,35,21.30
2015,06,24,08,36,21.40
2015,06,24,08,37,21.40
2015,06,24,08,38,21.40
2015,06,24,08,39,21.40
2015,06,24,08,40,21.40
2015,06,24,08,41,21.40
2015,06,24,08,42,21.40
2015,06,24,08,43,21.50
2015,06,24,08,44,21.50
2015,06,24,08,45,21.50
2015,06,24,08,46,21.60
2015,06,24,08,47,21.60
2015,06,24,08,48,21.70
2015,06,24,08,49,21.70
2015,06,24,08,50,21.70
2015,06,24,08,51,21.70
2015,06,24,08,52,21.70
2015,06,24,08,53,21.70
2015,06,24,08,54,21.70
2015,06,24,08,55,21.70
2015,06,24,08,56,21.80
2015,06,24,08,57,21.80
2015,06,24,08,58,21.80
2015,06,24,08,59,21.80
2015,06,24,09,00,21.70
2015,06,24,09,01,21.70
2015,06,24,09,02,21.70
2015,06,24,09,03,21.70
2015,06,24,09,04,21.70
2015,06,24,09,05,21.70
2015,06,24,09,06,21.80
2015,06,24,09,07,21.80
2015,06,24,09,08,21.80
2015,06,24,09,09,21.80
2015,06,24,09,10,21.70
2015,06,24,09,11,21.70
2015,06,24,09,12,21.70
2015,06,24,09,13,21.60
2015,06,24,09,14,21.50
2015,06,24,09,15,21.50
2015,06,24,09,16,21.40
2015,06,24,09,17,21.40
2015,06,24,09,18,21.30
2015,06,24,09,19,21.30
2015,06,24,09,20,21.40
2015,06,24,09,21,21.40
2015,06,24,09,22,21.50
2015,06,24,09,23,21.50
2015,06,24,09,24,21.60
2015,06,24,09,25,21.60
2015,06,24,09,26,21.50
2015,06,24,09,27,21.50
2015,06,24,09,28,21.50
2015,06,24,09,29,21.40
2015,06,24,09,30,21.40
2015,06,24,09,31,21.40
2015,06,24,09,32,21.40
2015,06,24,09,33,21.40
2015,06,24,09,34,21.40
2015,06,24,09,35,21.40
2015,06,24,09,36,21.40
2015,06,24,09,37,21.50
2015,06,24,09,38,21.50
2015,06,24,09,39,21.60
2015,06,24,09,40,21.60
2015,06,24,09,41,21.70
2015,06,24,09,42,21.70
2015,06,24,09,43,21.80
2015,06,24,09,44,21.80
2015,06,24,09,45,21.80
2015,06,24,09,46,21.90
2015,06,24,09,47,21.90
2015,06,24,09,48,21.90
2015,06,24,09,49,22.00
2015,06,24,09,50,22.00
2015,06,24,09,51,22.10
2015,06,24,09,52,22.10
2015,06,24,09,53,22.10
2015,06,24,09,54,22.10
2015,06,24,09,55,22.20
2015,06,24,09,56,22.20
2015,06,24,09,57,22.20
2015,06,24,09,58,22.20
2015,06,24,09,59,22.30
2015,06,24,10,00,22.30
2015,06,24,10,01,22.40
2015,06,24,10,02,22.50
2015,06,24,10,03,22.60
2015,06,24,10,04,22.80
2015,06,24,10,05,22.80
2015,06,24,10,06,22.90
2015,06,24,10,07,22.90
2015,06,24,10,08,22.90
2015,06,24,10,09,22.90
2015,06,24,10,10,23.00
2015,06,24,10,11,23.00
2015,06,24,10,12,23.00
2015,06,24,10,13,23.10
2015,06,24,10,14,23.10
2015,06,24,10,15,23.10
2015,06,24,10,16,23.10
2015,06,24,10,17,23.20
2015,06,24,10,18,23.20
2015,06,24,10,19,23.20
2015,06,24,10,20,23.20
2015,06,24,10,21,23.20
2015,06,24,10,22,23.10
2015,06,24,10,23,23.00
2015,06,24,10,24,22.90
2015,06,24,10,25,22.90
2015,06,24,10,26,22.80
2015,06,24,10,27,22.80
2015,06,24,10,28,22.80
2015,06,24,10,29,22.80
2015,06,24,10,30,22.80
2015,06,24,10,31,22.90
2015,06,24,10,32,22.90
2015,06,24,10,33,23.00
2015,06,24,10,34,23.10
2015,06,24,10,35,23.20
2015,06,24,10,36,23.20
2015,06,24,10,37,23.20
2015,06,24,10,38,23.10
2015,06,24,10,39,23.00
2015,06,24,10,40,23.00
2015,06,24,10,41,22.90
2015,06,24,10,42,22.90
2015,06,24,10,43,22.90
2015,06,24,10,44,22.90
2015,06,24,10,45,22.90
2015,06,24,10,46,22.90
2015,06,24,10,47,22.80
2015,06,24,10,48,22.80
2015,06,24,10,49,22.80
2015,06,24,10,50,22.90
2015,06,24,10,51,22.90
2015,06,24,10,52,22.90
2015,06,24,10,53,22.90
2015,06,24,10,54,23.00
2015,06,24,10,55,23.00
2015,06,24,10,56,23.00
2015,06,24,10,57,23.00
2015,06,24,10,58,23.10
2015,06,24,10,59,23.10
2015,06,24,11,00,23.10
2015,06,24,11,01,23.10
2015,06,24,11,02,23.10
2015,06,24,11,03,23.10
2015,06,24,11,04,23.10
2015,06,24,11,05,23.00
2015,06,24,11,06,23.00
2015,06,24,11,07,22.90
2015,06,24,11,08,22.90
2015,06,24,11,09,22.90
2015,06,24,11,10,22.80
2015,06,24,11,11,22.80
2015,06,24,11,12,22.80
2015,06,24,11,13,22.80
2015,06,24,11,14,22.80
2015,06,24,11,15,22.80
2015,06,24,11,16,22.80
2015,06,24,11,17,22.70
2015,06,24,11,18,22.70
2015,06,24,11,19,22.70
2015,06,24,11,20,22.70
2015,06,24,11,21,22.70
2015,06,24,11,22,22.70
2015,06,24,11,23,22.70
2015,06,24,11,24,22.60
2015,06,24,11,25,22.50
2015,06,24,11,26,22.40
2015,06,24,11,27,22.40
2015,06,24,11,28,22.30
2015,06,24,11,29,22.30
2015,06,24,11,30,22.30
2015,06,24,11,31,22.20
2015,06,24,11,32,22.20
2015,06,24,11,33,22.10
2015,06,24,11,34,22.10
2015,06,24,11,35,22.00
2015,06,24,11,36,22.00
2015,06,24,11,37,21.90
2015,06,24,11,38,21.80
2015,06,24,11,39,21.80
2015,06,24,11,40,21.80
2015,06,24,11,41,21.70
2015,06,24,11,42,21.70
2015,06,24,11,43,21.60
2015,06,24,11,44,21.60
2015,06,24,11,45,21.60
2015,06,24,11,46,21.60
2015,06,24,11,47,21.50
2015,06,24,11,48,21.50
2015,06,24,11,49,21.50
2015,06,24,11,50,21.40
2015,06,24,11,51,21.40
2015,06,24,11,52,21.50
2015,06,24,11,53,21.50
2015,06,24,11,54,21.50
2015,06,24,11,55,21.50
2015,06,24,11,56,21.60
2015,06,24,11,57,21.60
2015,06,24,11,58,21.60
2015,06,24,11,59,21.70
2015,06,24,12,00,21.70
2015,06,24,12,01,21.80
2015,06,24,12,02,21.80
2015,06,24,12,03,21.90
2015,06,24,12,04,21.90
2015,06,24,12,05,22.00
2015,06,24,12,06,22.00
2015,06,24,12,07,22.10
2015,06,24,12,08,22.10
2015,06,24,12,09,22.10
2015,06,24,12,10,22.20
2015,06,24,12,11,22.20
2015,06,24,12,12,22.20
2015,06,24,12,13,22.30
2015,06,24,12,14,22.30
2015,06,24,12,15,22.40
2015,06,24,12,16,22.40
2015,06,24,12,17,22.40
2015,06,24,12,18,22.40
2015,06,24,12,19,22.40
2015,06,24,12,20,22.30
2015,06,24,12,21,22.30
2015,06,24,12,22,22.30
2015,06,24,12,23,22.30
2015,06,24,12,24,22.30
2015,06,24,12,25,22.30
2015,06,24,12,26,22.30
2015,06,24,12,27,22.20
2015,06,24,12,28,22.20
2015,06,24,12,29,22.20
2015,06,24,12,30,22.20
2015,06,24,12,31,22.20
2015,06,24,12,32,22.20
2015,06,24,12,33,22.10
2015,06,24,12,34,22.00
2015,06,24,12,35,21.90
2015,06,24,12,36,21.80
2015,06,24,12,37,21.80
2015,06,24,12,38,21.70
2015,06,24,12,39,21.60
2015,06,24,12,40,21.60
2015,06,24,12,41,21.50
2015,06,24,12,42,21.50
2015,06,24,12,43,21.40
2015,06,24,12,44,21.40
2015,06,24,12,45,21.30
2015,06,24,12,46,21.30
2015,06,24,12,47,21.30
2015,06,24,12,48,21.30
2015,06,24,12,49,21.30
2015,06,24,12,50,21.30
2015,06,24,12,51,21.20
2015,06,24,12,52,21.20
2015,06,24,12,53,21.30
2015,06,24,12,54,21.30
2015,06,24,12,55,21.30
2015,06,24,12,56,21.30
2015,06,24,12,57,21.30
2015,06,24,12,58,21.30
2015,06,24,12,59,21.30
2015,06,24,13,00,21.30
2015,06,24,13,01,21.30
2015,06,24,13,02,21.30
2015,06,24,13,03,21.40
2015,06,24,13,04,21.50
2015,06,24,13,05,21.50
2015,06,24,13,06,21.60
2015,06,24,13,07,21.60
2015,06,24,13,08,21.60
2015,06,24,13,09,21.60
2015,06,24,13,10,21.70
2015,06,24,13,11,21.70
2015,06,24,13,12,21.70
2015,06,24,13,13,21.60
2015,06,24,13,14,21.70
2015,06,24,13,15,21.70
2015,06,24,13,16,21.80
2015,06,24,13,17,21.80
2015,06,24,13,18,21.80
2015,06,24,13,19,21.80
2015,06,24,13,20,21.80
2015,06,24,13,21,21.90
2015,06,24,13,22,21.90
2015,06,24,13,23,21.90
2015,06,24,13,24,22.00
2015,06,24,13,25,22.00
2015,06,24,13,26,22.10
2015,06,24,13,27,22.10
2015,06,24,13,28,22.20
2015,06,24,13,29,22.20
2015,06,24,13,30,22.20
2015,06,24,13,31,22.10
2015,06,24,13,32,22.10
2015,06,24,13,33,22.10
2015,06,24,13,34,22.20
2015,06,24,13,35,22.20
2015,06,24,13,36,22.20
2015,06,24,13,37,22.30
2015,06,24,13,38,22.30
2015,06,24,13,39,22.30
2015,06,24,13,40,22.40
2015,06,24,13,41,22.50
2015,06,24,13,42,22.50
2015,06,24,13,43,22.60
2015,06,24,13,44,22.60
2015,06,24,13,45,22.60
2015,06,24,13,46,22.60
2015,06,24,13,47,22.70
2015,06,24,13,48,22.70
2015,06,24,13,49,22.80
2015,06,24,13,50,22.90
2015,06,24,13,51,22.90
2015,06,24,13,52,23.00
2015,06,24,13,53,23.10
2015,06,24,13,54,23.10
2015,06,24,13,55,23.10
2015,06,24,13,56,23.10
2015,06,24,13,57,23.10
2015,06,24,13,58,23.00
2015,06,24,13,59,23.00
2015,06,24,14,00,23.00
2015,06,24,14,01,23.10
2015,06,24,14,02,23.10
2015,06,24,14,03,23.10
2015,06,24,14,04,23.20
2015,06,24,14,05,23.20
2015,06,24,14,06,23.20
2015,06,24,14,07,23.20
2015,06,24,14,08,23.20
2015,06,24,14,09,23.20
2015,06,24,14,10,23.30
2015,06,24,14,11,23.30
2015,06,24,14,12,23.30
2015,06,24,14,13,23.30
2015,06,24,14,14,23.30
2015,06,24,14,15,23.40
2015,06,24,14,16,23.40
2015,06,24,14,17,23.40
2015,06,24,14,18,23.40
2015,06,24,14,19,23.40
2015,06,24,14,20,23.40
2015,06,24,14,21,23.40
2015,06,24,14,22,23.40
2015,06,24,14,23,23.30
2015,06,24,14,24,23.30
2015,06,24,14,25,23.30
2015,06,24,14,26,23.20
2015,06,24,14,27,23.20
2015,06,24,14,28,23.20
2015,06,24,14,29,23.30
2015,06,24,14,30,23.30
2015,06,24,14,31,23.30
2015,06,24,14,32,23.40
2015,06,24,14,33,23.40
2015,06,24,14,34,23.50
2015,06,24,14,35,23.60
2015,06,24,14,36,23.70
2015,06,24,14,37,23.70
2015,06,24,14,38,23.70
2015,06,24,14,39,23.70
2015,06,24,14,40,23.80
2015,06,24,14,41,23.80
2015,06,24,14,42,23.80
2015,06,24,14,43,23.90
2015,06,24,14,44,23.90
2015,06,24,14,45,24.00
2015,06,24,14,46,24.00
2015,06,24,14,47,24.00
2015,06,24,14,48,24.10
2015,06,24,14,49,24.10
2015,06,24,14,50,24.00
2015,06,24,14,51,23.90
2015,06,24,14,52,23.90
2015,06,24,14,53,23.80
2015,06,24,14,54,23.70
2015,06,24,14,55,23.70
2015,06,24,14,56,23.60
2015,06,24,14,57,23.60
2015,06,24,14,58,23.50
2015,06,24,14,59,23.50
2015,06,24,15,00,23.40
2015,06,24,15,01,23.40
2015,06,24,15,02,23.30
2015,06,24,15,03,23.30
2015,06,24,15,04,23.30
2015,06,24,15,05,23.20
2015,06,24,15,06,23.20
2015,06,24,15,07,23.20
2015,06,24,15,08,23.20
2015,06,24,15,09,23.20
2015,06,24,15,10,23.20
2015,06,24,15,11,23.30
2015,06,24,15,12,23.30
2015,06,24,15,13,23.30
2015,06,24,15,14,23.20
2015,06,24,15,15,23.20
2015,06,24,15,16,23.20
2015,06,24,15,17,23.20
2015,06,24,15,18,23.20
2015,06,24,15,19,23.30
2015,06,24,15,20,23.30
2015,06,24,15,21,23.40
2015,06,24,15,22,23.40
2015,06,24,15,23,23.40
2015,06,24,15,24,23.40
2015,06,24,15,25,23.40
2015,06,24,15,26,23.50
2015,06,24,15,27,23.50
2015,06,24,15,28,23.50
2015,06,24,15,29,23.60
2015,06,24,15,30,23.60
2015,06,24,15,31,23.60
2015,06,24,15,32,23.60
2015,06,24,15,33,23.70
2015,06,24,15,34,23.80
2015,06,24,15,35,23.80
2015,06,24,15,36,23.80
2015,06,24,15,37,23.80
2015,06,24,15,38,23.80
2015,06,24,15,39,23.70
2015,06,24,15,40,23.70
2015,06,24,15,41,23.60
2015,06,24,15,42,23.60
2015,06,24,15,43,23.50
2015,06,24,15,44,23.50
2015,06,24,15,45,23.40
2015,06,24,15,46,23.30
2015,06,24,15,47,23.30
2015,06,24,15,48,23.30
2015,06,24,15,49,23.30
2015,06,24,15,50,23.20
2015,06,24,15,51,23.10
2015,06,24,15,52,23.10
2015,06,24,15,53,23.10
2015,06,24,15,54,23.00
2015,06,24,15,55,23.10
2015,06,24,15,56,23.10
2015,06,24,15,57,23.10
2015,06,24,15,58,23.10
2015,06,24,15,59,23.10
2015,06,24,16,00,23.20
2015,06,24,16,01,23.20
2015,06,24,16,02,23.20
2015,06,24,16,03,23.20
2015,06,24,16,04,23.20
2015,06,24,16,05,23.20
2015,06,24,16,06,23.30
2015,06,24,16,07,23.30
2015,06,24,16,08,23.30
2015,06,24,16,09,23.30
2015,06,24,16,10,23.30
2015,06,24,16,11,23.30
2015,06,24,16,12,23.30
2015,06,24,16,13,23.30
2015,06,24,16,14,23.20
2015,06,24,16,15,23.30
2015,06,24,16,16,23.30
2015,06,24,16,17,23.30
2015,06,24,16,18,23.30
2015,06,24,16,19,23.30
2015,06,24,16,20,23.40
2015,06,24,16,21,23.40
2015,06,24,16,22,23.40
2015,06,24,16,23,23.50
2015,06,24,16,24,23.50
2015,06,24,16,25,23.60
2015,06,24,16,26,23.70
2015,06,24,16,27,23.70
2015,06,24,16,28,23.80
2015,06,24,16,29,23.80
2015,06,24,16,30,23.60
2015,06,24,16,31,23.50
2015,06,24,16,32,23.40
2015,06,24,16,33,23.20
2015,06,24,16,34,23.10
2015,06,24,16,35,23.00
2015,06,24,16,36,23.00
2015,06,24,16,37,23.00
2015,06,24,16,38,23.00
2015,06,24,16,39,23.10
2015,06,24,16,40,23.10
2015,06,24,16,41,23.20
2015,06,24,16,42,23.20
2015,06,24,16,43,23.20
2015,06,24,16,44,23.30
2015,06,24,16,45,23.30
2015,06,24,16,46,23.30
2015,06,24,16,47,23.30
2015,06,24,16,48,23.30
2015,06,24,16,49,23.20
2015,06,24,16,50,23.20
2015,06,24,16,51,23.10
2015,06,24,16,52,23.10
2015,06,24,16,53,23.10
2015,06,24,16,54,23.10
2015,06,24,16,55,23.20
2015,06,24,16,56,23.20
2015,06,24,16,57,23.30
2015,06,24,16,58,23.30
2015,06,24,16,59,23.20
2015,06,24,17,00,23.20
2015,06,24,17,01,23.20
2015,06,24,17,02,23.20
2015,06,24,17,03,23.20
2015,06,24,17,04,23.30
2015,06,24,17,05,23.30
2015,06,24,17,06,23.40
2015,06,24,17,07,23.40
2015,06,24,17,08,23.40
2015,06,24,17,09,23.50
2015,06,24,17,10,23.50
2015,06,24,17,11,23.60
2015,06,24,17,12,23.60
2015,06,24,17,13,23.60
2015,06,24,17,14,23.60
2015,06,24,17,15,23.70
2015,06,24,17,16,23.70
2015,06,24,17,17,23.70
2015,06,24,17,18,23.70
2015,06,24,17,19,23.80